When you browse on this site, cookies collect data to enhance your experience and personalize the content and advertising you see.
Visit our Privacy Policy to learn more. By continuing to use the site, you agree to this use of cookies and data.
  • In Sweden
  • List of Countries
  • For 7 days
  • Water Temperature
  • Satellite Maps
  • Weather Map
  • Weather Widgets
  • user-avatar
    Login

    Hourly Weather Chicopee

    Today, 20 May, Monday

    Time Temperature Precipitation Wind Pressure Humidity
    00:00 +20°C° 1.5 mm 4 mps 756 mmHg 97%
    01:00 +20°C° 1.5 mm 4 mps 756 mmHg 97%
    02:00 +20°C° 1.3 mm 4 mps 755 mmHg 97%
    03:00 +20°C° 1.3 mm 3 mps 755 mmHg 97%
    04:00 +20°C° 1.3 mm 3 mps 755 mmHg 98%
    05:00 +20°C° 0.5 mm 3 mps 754 mmHg 97%
    06:00 +21°C° 0.5 mm 3 mps 754 mmHg 96%
    07:00 +21°C° 0.5 mm 3 mps 754 mmHg 96%
    08:00 +22°C° 0.1 mm 3 mps 754 mmHg 93%
    09:00 +22°C° 0.1 mm 3 mps 753 mmHg 90%
    10:00 +24°C° 0.1 mm 3 mps 753 mmHg 88%
    11:00 +25°C° 0.1 mm 4 mps 753 mmHg 78%
    12:00 +27°C° 0.1 mm 5 mps 752 mmHg 68%
    13:00 +28°C° 0.1 mm 6 mps 752 mmHg 58%
    14:00 +28°C° 0 mm 6 mps 751 mmHg 57%
    15:00 +29°C° 0 mm 6 mps 751 mmHg 55%
    16:00 +29°C° 0 mm 6 mps 751 mmHg 53%
    17:00 +27°C° 0.3 mm 5 mps 751 mmHg 65%
    18:00 +23°C° 0.3 mm 4 mps 751 mmHg 76%
    19:00 +21°C° 0.3 mm 4 mps 751 mmHg 87%
    20:00 +19°C° 0 mm 4 mps 752 mmHg 84%
    21:00 +17°C° 0 mm 4 mps 752 mmHg 81%
    22:00 +14°C° 0 mm 4 mps 752 mmHg 78%
    23:00 +13°C° 0 mm 3 mps 753 mmHg 77%

    Tomorrow, 21 May, Tuesday

    Time Temperature Precipitation Wind Pressure Humidity
    00:00 +12°C° 0 mm 3 mps 753 mmHg 76%
    01:00 +11°C° 0 mm 3 mps 753 mmHg 74%
    02:00 +11°C° 0 mm 3 mps 753 mmHg 74%
    03:00 +11°C° 0 mm 3 mps 753 mmHg 75%
    04:00 +11°C° 0 mm 3 mps 753 mmHg 75%
    05:00 +12°C° 0 mm 4 mps 753 mmHg 71%
    06:00 +12°C° 0 mm 5 mps 753 mmHg 66%
    07:00 +13°C° 0 mm 6 mps 754 mmHg 62%
    08:00 +15°C° 0 mm 6 mps 754 mmHg 55%
    09:00 +16°C° 0 mm 7 mps 754 mmHg 49%
    10:00 +17°C° 0 mm 7 mps 754 mmHg 42%
    11:00 +17°C° 0 mm 7 mps 754 mmHg 41%
    12:00 +18°C° 0 mm 7 mps 754 mmHg 40%
    13:00 +18°C° 0 mm 7 mps 754 mmHg 38%
    14:00 +18°C° 0 mm 7 mps 754 mmHg 41%
    15:00 +17°C° 0 mm 7 mps 754 mmHg 43%
    16:00 +16°C° 0 mm 7 mps 755 mmHg 45%
    17:00 +15°C° 0 mm 6 mps 755 mmHg 49%
    18:00 +14°C° 0 mm 4 mps 756 mmHg 52%
    19:00 +13°C° 0 mm 3 mps 756 mmHg 56%
    20:00 +12°C° 0 mm 3 mps 757 mmHg 58%
    21:00 +11°C° 0 mm 3 mps 757 mmHg 60%
    22:00 +11°C° 0 mm 3 mps 758 mmHg 61%
    23:00 +10°C° 0 mm 3 mps 758 mmHg 62%

    Day after tomorrow, 22 May, Wednesday

    Time Temperature Precipitation Wind Pressure Humidity
    00:00 +10°C° 0 mm 3 mps 758 mmHg 63%
    01:00 +8°C° 0 mm 4 mps 759 mmHg 64%
    02:00 +8°C° 0 mm 4 mps 759 mmHg 64%
    03:00 +8°C° 0 mm 4 mps 760 mmHg 65%
    04:00 +7°C° 0 mm 4 mps 760 mmHg 66%
    05:00 +10°C° 0 mm 4 mps 761 mmHg 61%
    06:00 +11°C° 0 mm 4 mps 761 mmHg 57%
    07:00 +13°C° 0 mm 5 mps 762 mmHg 53%
    08:00 +15°C° 0 mm 5 mps 762 mmHg 47%
    09:00 +16°C° 0 mm 5 mps 762 mmHg 42%
    10:00 +19°C° 0 mm 5 mps 762 mmHg 36%
    11:00 +20°C° 0 mm 5 mps 762 mmHg 34%
    12:00 +21°C° 0 mm 5 mps 762 mmHg 33%
    13:00 +23°C° 0 mm 5 mps 762 mmHg 31%
    14:00 +23°C° 0 mm 4 mps 762 mmHg 31%
    15:00 +23°C° 0 mm 4 mps 762 mmHg 32%
    16:00 +23°C° 0 mm 4 mps 762 mmHg 32%
    17:00 +21°C° 0 mm 3 mps 762 mmHg 41%
    18:00 +18°C° 0 mm 2 mps 763 mmHg 49%
    19:00 +16°C° 0 mm 1 mps 763 mmHg 58%
    20:00 +15°C° 0 mm 1 mps 763 mmHg 60%
    21:00 +13°C° 0 mm 1 mps 764 mmHg 62%
    22:00 +12°C° 0 mm 1 mps 764 mmHg 64%
    23:00 +11°C° 0 mm 1 mps 764 mmHg 69%

    23 May, Thursday

    Time Temperature Precipitation Wind Pressure Humidity
    00:00 +11°C° 0 mm 1 mps 764 mmHg 74%
    01:00 +9°C° 0 mm 0 mps 764 mmHg 78%
    02:00 +9°C° 0 mm 0 mps 764 mmHg 79%
    03:00 +9°C° 0 mm 0 mps 764 mmHg 80%
    04:00 +9°C° 0 mm 0 mps 764 mmHg 81%
    05:00 +11°C° 0 mm 0 mps 764 mmHg 74%
    06:00 +13°C° 0 mm 0 mps 764 mmHg 68%
    07:00 +15°C° 0 mm 0 mps 764 mmHg 61%
    08:00 +18°C° 0 mm 0 mps 764 mmHg 54%
    09:00 +22°C° 0 mm 1 mps 764 mmHg 47%
    10:00 +24°C° 0 mm 1 mps 764 mmHg 40%
    11:00 +25°C° 0 mm 1 mps 763 mmHg 40%
    12:00 +26°C° 0 mm 2 mps 762 mmHg 39%
    13:00 +27°C° 0 mm 2 mps 762 mmHg 38%
    14:00 +26°C° 0 mm 2 mps 761 mmHg 44%
    15:00 +25°C° 0 mm 2 mps 761 mmHg 49%
    16:00 +25°C° 0 mm 2 mps 760 mmHg 55%
    17:00 +22°C° 0 mm 3 mps 760 mmHg 59%
    18:00 +21°C° 0 mm 3 mps 760 mmHg 63%
    19:00 +19°C° 0 mm 3 mps 759 mmHg 67%
    20:00 +18°C° 0.6 mm 3 mps 759 mmHg 76%
    21:00 +16°C° 0.6 mm 3 mps 758 mmHg 85%
    22:00 +15°C° 0.6 mm 2 mps 758 mmHg 95%
    23:00 +15°C° 0.3 mm 2 mps 757 mmHg 96%

    24 May, Friday

    Time Temperature Precipitation Wind Pressure Humidity
    00:00 +15°C° 0.3 mm 2 mps 756 mmHg 96%
    01:00 +15°C° 0.3 mm 2 mps 756 mmHg 97%
    02:00 +15°C° 0.2 mm 1 mps 755 mmHg 97%
    03:00 +15°C° 0.2 mm 1 mps 755 mmHg 98%
    04:00 +14°C° 0.2 mm 0 mps 755 mmHg 98%
    05:00 +16°C° 0 mm 1 mps 755 mmHg 96%
    06:00 +17°C° 0 mm 2 mps 755 mmHg 93%
    07:00 +18°C° 0 mm 3 mps 756 mmHg 91%
    08:00 +18°C° 0.1 mm 3 mps 757 mmHg 85%
    09:00 +18°C° 0.1 mm 4 mps 757 mmHg 80%
    10:00 +19°C° 0.1 mm 5 mps 758 mmHg 74%
    11:00 +17°C° 0 mm 5 mps 759 mmHg 73%
    12:00 +17°C° 0 mm 5 mps 760 mmHg 71%
    13:00 +17°C° 0 mm 5 mps 760 mmHg 70%
    14:00 +18°C° 0 mm 4 mps 761 mmHg 68%
    15:00 +18°C° 0 mm 4 mps 761 mmHg 66%
    16:00 +18°C° 0 mm 4 mps 762 mmHg 64%
    17:00 +17°C° 0 mm 3 mps 762 mmHg 67%
    18:00 +16°C° 0 mm 2 mps 763 mmHg 71%
    19:00 +15°C° 0 mm 2 mps 764 mmHg 74%
    20:00 +13°C° 0 mm 2 mps 764 mmHg 76%
    21:00 +12°C° 0 mm 1 mps 765 mmHg 79%
    22:00 +10°C° 0 mm 1 mps 765 mmHg 81%
    23:00 +10°C° 0 mm 1 mps 765 mmHg 84%

    25 May, Saturday

    Time Temperature Precipitation Wind Pressure Humidity
    00:00 +9°C° 0 mm 1 mps 765 mmHg 87%
    01:00 +8°C° 0 mm 1 mps 765 mmHg 91%
    02:00 +7°C° 0 mm 0 mps 765 mmHg 92%
    03:00 +7°C° 0 mm 0 mps 765 mmHg 92%
    04:00 +6°C° 0 mm 0 mps 765 mmHg 93%
    05:00 +9°C° 0 mm 1 mps 765 mmHg 85%
    06:00 +11°C° 0 mm 1 mps 765 mmHg 76%
    07:00 +13°C° 0 mm 2 mps 765 mmHg 68%
    08:00 +15°C° 0 mm 2 mps 765 mmHg 60%
    09:00 +16°C° 0 mm 3 mps 765 mmHg 53%
    10:00 +18°C° 0 mm 3 mps 764 mmHg 46%
    11:00 +19°C° 0 mm 4 mps 764 mmHg 45%
    12:00 +20°C° 0 mm 4 mps 764 mmHg 43%
    13:00 +20°C° 0 mm 4 mps 763 mmHg 42%
    14:00 +20°C° 0 mm 4 mps 763 mmHg 45%
    15:00 +20°C° 0 mm 5 mps 762 mmHg 47%
    16:00 +20°C° 0 mm 5 mps 762 mmHg 49%
    17:00 +19°C° 0 mm 4 mps 762 mmHg 56%
    18:00 +17°C° 0 mm 4 mps 762 mmHg 64%
    19:00 +15°C° 0 mm 4 mps 761 mmHg 71%
    20:00 +14°C° 0.2 mm 4 mps 761 mmHg 78%
    21:00 +14°C° 0.2 mm 3 mps 761 mmHg 84%
    22:00 +13°C° 0.2 mm 3 mps 761 mmHg 91%
    23:00 +13°C° 0.2 mm 3 mps 760 mmHg 92%
    Show more